Regional Weather Roundup
Issued by NWS

Home | Current Version | Previous Version | Graphics & Text | Print | Product List | Glossary On
Versions: 1 2 3 4 5 6 7 8 9 10 11 12 13 14 15 16 17 18 19 20 21 22 23 24 25 26 27 28 29 30 31 32 33 34 35 36 37 38 39 40 41 42 43 44 45 46 47 48 49 50
000
ASUS43 KDMX 050707
RWRIA

WEATHER ROUNDUP FOR IOWA
NATIONAL WEATHER SERVICE DES MOINES IA
100 AM CST THU MAR 05 2015

NOTE: "FAIR" INDICATES FEW OR NO CLOUDS BELOW 12,000 FEET WITH NO
SIGNIFICANT WEATHER AND/OR OBSTRUCTIONS TO VISIBILITY.

* - THESE STATIONS ARE NOT NWS STATIONS...THUS NOT UNDER NWS
QUALITY CONTROL.  THEY ALSO DO NOT REPORT WEATHER SUCH
AS PRECIPITATION OR FOG.

IAZ001>003-012>014-020>022-031>034-043>046-050800-
   NORTHWEST IOWA

CITY           SKY/WX    TMP DP  RH WIND       PRES   REMARKS
CARROLL *      CLEAR      0  -8  71 NW8       30.45S WCI -15
CHEROKEE *     CLEAR     -2  -8  78 CALM      30.46S
DENISON *      CLEAR      0  -8  71 CALM      30.44S
LE MARS *      CLEAR     -2  -6  84 N5        30.47S WCI -12
ORANGE CITY *  CLEAR      1  -8  66 CALM      30.43S
SHELDON *      CLEAR     -6 -13  71 NW3       30.42S
SIOUX CITY     CLEAR      2  -6  69 CALM      30.48S
SPENCER        CLEAR     -5 -11  75 NW3       30.43S
STORM LAKE *   CLEAR     -2 -11  65 NW5       30.43S WCI -12
$$

IAZ055>058-069>071-079>083-090>094-050800-
   SOUTHWEST IOWA

CITY           SKY/WX    TMP DP  RH WIND       PRES   REMARKS
ATLANTIC *     CLEAR      3  -6  66 CALM      30.46S
AUDUBON *      CLEAR      1  -6  71 CALM      30.44S
CLARINDA *     CLEAR      9   0  66 N7        30.50R WCI  -3
COUNCIL BLFS * CLEAR      5  -4  66 N6        30.45S WCI  -6
CRESTON *      CLEAR      7  -4  61 N10G17    30.43F WCI  -8
HARLAN  *      CLEAR      1  -6  71 N5        30.49F WCI  -8
LAMONI         CLEAR     10   1  67 N12       30.43R WCI  -5
RED OAK *      CLEAR      5  -2  72 N7        30.49R WCI  -7
SHENANDOAH *   CLEAR      7  -2  66 N6        30.50S WCI  -3
$$

IAZ047>049-059>061-072>074-084-050800-
   CENTRAL IOWA

CITY           SKY/WX    TMP DP  RH WIND       PRES   REMARKS
AMES           CLEAR      4  -6  63 N12       30.46S WCI -12
ANKENY *       CLOUDY     7   0  72 N12       30.47R WCI  -9
CHARITON *     FLURRIES  10   3  72 NW10      30.43R WCI  -3
DES MOINES     PTCLDY     8  -1  66 NW9       30.45F WCI  -5
GRINNELL*      PTCLDY     3  -4  72 N9        30.43S WCI -11
KNOXVILLE *    FLURRIES  10   1  67 N12       30.43R WCI  -4
MARSHALLTOWN   CLEAR     -4 -10  75 NW6       30.44F WCI -16
PELLA *        MOCLDY     9   3  78 N12G18    30.46R WCI  -6
PERRY *          N/A      5  -2  72 N7        30.47R WCI  -7
$$

IAZ004>006-015-016-023>025-035-036-050800-
   NORTH CENTRAL IOWA

CITY           SKY/WX    TMP DP  RH WIND       PRES   REMARKS
ALGONA *       CLEAR      0 N/A N/A NW5       30.45R WCI -10
CLARION *      CLEAR      0  -8  71 NW8       30.44S WCI -15
ESTHERVILLE    CLEAR     -4 -10  75 NW8       30.42R WCI -19
FORT DODGE *   CLEAR      0  -8  71 CALM      30.45F
MASON CITY     CLEAR     -9 -13  83 NW8       30.43S WCI -25
FOREST CITY *  CLEAR     -4 -13  65 NW6       30.42S WCI -16
IOWA FALLS *     N/A     -4  -9  77 NW9       30.44R WCI -20
$$

IAZ007>011-017>019-026>030-037>042-050>054-066-050800-
   NORTHEAST IOWA

CITY           SKY/WX    TMP DP  RH WIND       PRES   REMARKS
CEDAR RAPIDS   CLEAR      1  -4  79 N10       30.42F WCI -15
CHARLES CITY * CLEAR     -4 -11  71 NW9       30.42F WCI -20
CLINTON *      PTCLDY     0  -8  71 NW8       30.43F WCI -15
DECORAH *      CLEAR     -2 -11  65 W3        30.39F
DUBUQUE        CLEAR      3  -6  66 N10       30.37F WCI -12
MONTICELLO *   CLEAR      3  -8  60 NW8       30.42R WCI -10
OELWEIN *      CLEAR     -6 -13  71 NW9       30.41F WCI -22
WATERLOO       CLEAR     -1  -8  72 NW3       30.44F
$$

IAZ064-065-067-068-078-050800-
   EAST CENTRAL IOWA

CITY           SKY/WX    TMP DP  RH WIND       PRES   REMARKS
DAVENPORT      CLEAR      6  -3  66 N8        30.42F WCI  -7
IOWA CITY      CLEAR      8  -1  66 N12       30.45F WCI  -7
MT. PLEASANT * CLOUDY    12   3  67 N12       30.43R WCI  -2
MUSCATINE *    MOCLDY    12   3  67 N13       30.45S WCI  -3
QUAD CITIES    CLEAR     11  -1  58 N9        30.42F WCI  -2
$$

IAZ062-063-075>077-085>089-095>099-050800-
   SOUTHEAST IOWA

CITY           SKY/WX    TMP DP  RH WIND       PRES   REMARKS
BURLINGTON     CLOUDY    14   6  70 N10       30.41F WCI   1
FAIRFIELD *    CLEAR     10   0  61 N12G17    30.43R WCI  -4
FORT MADISON * CLOUDY    12   7  79 N9        30.41S WCI   0
KEOKUK *       CLOUDY    16   7  67 N10       30.40R WCI   3
OSKALOOSA *      N/A      9   1  72 N10       30.44R WCI  -6
CENTERVILLE *  PTCLDY    10   7  85 N5        30.42S WCI   2
OTTUMWA        PTCLDY     9   2  73 N10       30.43S WCI  -5
WASHINGTON *   CLEAR     10   5  79 N15       30.44R WCI  -6
$$

ABBREVIATIONS USED IN REMARKS
   TC - TEMPERATURES IN CELSIUS
  WCI - WIND CHILL INDEX
   HX - HEAT INDEX
  VSB - VISIBILITY
$$




USA.gov is the U.S. government's official web portal to all federal, state and local government web resources and services.